Temp
-13 -13 -14 -14 -13 -14 -14 -15 -15 -16 -16 -16 -16 -16 -17 -17 -17 -17 -17 -17 -17 -17 -17 -17 -17 -17 -18 -17 -17 -17 -18 -18 -18 -17 -19 -18 -18 -18 -18 -19 -18 -18 -17 -17
-14 -14 -14 -14 -14 -15 -15 -16 -16 -16 -16 -17 -17 -17 -17 -17 -17 -17 -17 -17 -17 -17 -17 -17 -17 -17 -18 -18 -17 -17 -17 -17 -17 -18 -18 -18 -19 -18 -17 -18 -18 -19 -18 -17
-14 -14 -14 -14 -15 -16 -16 -16 -16 -17 -17 -17 -17 -17 -18 -18 -19 -18 -18 -17 -18 -17 -17 -18 -17 -17 -17 -17 -18 -18 -18 -17 -18 -18 -18 -18 -19 -19 -18 -17 -18 -18 -18 -18
-14 -14 -14 -15 -15 -16 -17 -17 -17 -17 -17 -17 -18 -18 -19 -19 -19 -19 -18 -18 -18 -18 -18 -18 -18 -18 -18 -18 -18 -18 -18 -18 -18 -17 -18 -18 -18 -19 -19 -18 -18 -18 -19 -18
-14 -14 -15 -16 -16 -17 -17 -17 -17 -17 -17 -18 -18 -18 -19 -19 -19 -19 -19 -19 -19 -19 -19 -19 -18 -18 -19 -19 -19 -19 -19 -18 -19 -18 -18 -18 -18 -18 -18 -18 -18 -18 -18 -19
-15 -15 -16 -17 -17 -17 -17 -17 -18 -18 -18 -18 -19 -19 -20 -20 -20 -20 -19 -19 -19 -19 -19 -20 -20 -20 -21 -21 -22 -22 -22 -21 -20 -19 -19 -18 -18 -18 -18 -19 -18 -18 -18 -19
-16 -16 -16 -17 -17 -17 -18 -18 -18 -18 -18 -19 -19 -20 -20 -21 -21 -21 -20 -20 -20 -21 -20 -21 -22 -23 -24 -25 -25 -24 -23 -23 -22 -21 -20 -19 -19 -18 -18 -18 -19 -19 -18 -18
-16 -16 -17 -17 -18 -18 -18 -19 -19 -19 -19 -19 -19 -20 -21 -21 -22 -21 -21 -21 -21 -22 -22 -23 -24 -25 -25 -26 -25 -25 -25 -25 -23 -22 -21 -19 -19 -19 -19 -18 -18 -19 -18 -18
-16 -17 -17 -17 -18 -19 -19 -19 -20 -20 -20 -20 -21 -21 -21 -21 -22 -22 -21 -21 -23 -23 -24 -25 -25 -25 -25 -26 -25 -25 -26 -25 -24 -23 -22 -21 -20 -20 -19 -19 -19 -18 -18 -18
-17 -17 -17 -18 -19 -20 -21 -21 -21 -21 -21 -21 -22 -22 -22 -23 -23 -22 -22 -22 -22 -24 -25 -25 -25 -25 -25 -26 -26 -25 -26 -25 -25 -24 -24 -22 -21 -21 -20 -20 -19 -19 -18 -18
-17 -18 -19 -20 -21 -22 -22 -22 -22 -22 -22 -22 -23 -23 -24 -23 -23 -23 -22 -22 -23 -24 -25 -25 -25 -25 -25 -26 -26 -26 -26 -25 -25 -25 -24 -23 -23 -21 -21 -20 -20 -20 -19 -19
-18 -19 -20 -21 -22 -23 -23 -23 -23 -23 -23 -23 -23 -24 -23 -24 -24 -23 -23 -24 -25 -25 -25 -25 -26 -26 -25 -26 -26 -26 -26 -26 -26 -25 -25 -24 -24 -23 -22 -21 -21 -20 -20 -19
-19 -20 -22 -22 -23 -24 -24 -23 -23 -23 -23 -23 -24 -24 -24 -25 -24 -24 -24 -24 -25 -25 -26 -25 -26 -26 -26 -26 -26 -27 -26 -26 -26 -26 -26 -25 -25 -24 -22 -22 -22 -21 -20 -20
-20 -21 -22 -23 -24 -24 -23 -23 -24 -24 -24 -23 -23 -25 -26 -25 -25 -25 -25 -25 -25 -25 -26 -26 -26 -26 -27 -27 -27 -27 -27 -27 -26 -26 -26 -25 -25 -24 -24 -23 -23 -22 -22 -21
-20 -21 -22 -24 -24 -24 -24 -23 -24 -24 -24 -24 -23 -24 -25 -25 -25 -25 -26 -26 -26 -26 -26 -26 -26 -27 -28 -28 -27 -27 -27 -27 -26 -26 -26 -26 -25 -25 -24 -24 -23 -23 -22 -22
-21 -22 -23 -24 -24 -24 -24 -24 -24 -24 -24 -23 -23 -24 -25 -25 -26 -26 -26 -26 -26 -26 -27 -27 -27 -27 -28 -28 -28 -27 -27 -27 -27 -26 -26 -26 -26 -25 -25 -25 -24 -23 -23 -22
-22 -22 -23 -24 -24 -24 -24 -24 -24 -24 -24 -24 -24 -25 -26 -26 -26 -27 -27 -27 -27 -27 -27 -27 -27 -28 -28 -28 -28 -27 -27 -27 -27 -26 -26 -26 -26 -26 -25 -25 -25 -24 -24 -23
-22 -23 -24 -24 -24 -24 -24 -24 -25 -25 -25 -26 -26 -26 -27 -27 -28 -28 -28 -28 -27 -28 -28 -28 -28 -28 -28 -28 -28 -28 -27 -27 -27 -27 -26 -26 -26 -25 -25 -26 -26 -25 -25 -24
-23 -24 -24 -24 -24 -24 -24 -25 -26 -26 -27 -27 -28 -28 -28 -28 -29 -29 -29 -28 -28 -28 -28 -28 -28 -28 -28 -28 -28 -28 -27 -27 -27 -27 -26 -26 -26 -26 -26 -26 -26 -26 -25 -25
-23 -24 -24 -24 -24 -24 -25 -26 -27 -27 -28 -29 -29 -30 -30 -30 -30 -29 -29 -29 -29 -29 -28 -28 -28 -29 -29 -29 -29 -29 -28 -28 -27 -27 -27 -26 -26 -26 -26 -26 -26 -26 -26 -26
-24 -24 -24 -25 -25 -25 -26 -27 -28 -28 -29 -30 -30 -30 -30 -30 -30 -30 -30 -30 -29 -29 -29 -29 -29 -29 -29 -29 -29 -29 -29 -28 -28 -28 -27 -27 -27 -26 -26 -26 -26 -26 -26 -26
-24 -24 -25 -26 -27 -27 -28 -28 -29 -30 -30 -31 -31 -31 -31 -31 -31 -30 -30 -30 -30 -30 -30 -30 -30 -30 -30 -30 -29 -29 -29 -29 -28 -28 -28 -28 -28 -27 -27 -27 -27 -27 -26 -26
-24 -25 -26 -27 -28 -29 -29 -30 -31 -31 -31 -31 -31 -31 -31 -31 -31 -31 -31 -31 -31 -31 -31 -31 -31 -31 -30 -30 -30 -30 -30 -30 -29 -29 -29 -29 -29 -28 -28 -28 -28 -27 -27 -27
-24 -25 -27 -28 -29 -29 -30 -31 -32 -32 -32 -32 -32 -31 -31 -31 -31 -31 -31 -31 -31 -31 -31 -31 -31 -31 -31 -31 -31 -31 -31 -31 -31 -30 -30 -30 -29 -29 -29 -29 -28 -28 -28 -28
-25 -26 -27 -28 -29 -30 -31 -31 -32 -32 -32 -32 -32 -32 -32 -32 -32 -32 -32 -32 -32 -32 -32 -32 -32 -32 -32 -32 -32 -32 -32 -32 -31 -31 -31 -31 -31 -30 -30 -30 -29 -29 -29 -28
-26 -27 -28 -29 -29 -30 -31 -31 -32 -32 -32 -32 -32 -32 -32 -32 -32 -32 -32 -32 -32 -32 -32 -32 -32 -32 -33 -33 -33 -33 -32 -32 -32 -32 -32 -32 -32 -31 -31 -31 -31 -31 -30 -30
-26 -27 -27 -28 -29 -30 -31 -31 -32 -32 -32 -32 -32 -32 -32 -32 -32 -32 -32 -32 -32 -32 -32 -32 -32 -33 -33 -33 -33 -33 -33 -33 -33 -33 -32 -32 -32 -32 -32 -32 -32 -31 -31 -31
Height
5688 5681 5677 5673 5667 5661 5654 5650 5646 5641 5637 5636 5632 5628 5624 5621 5616 5611 5607 5603 5599 5595 5591 5588 5585 5582 5578 5574 5572 5569 5566 5563 5562 5564 5562 5562 5561 5561 5562 5562 5561 5561 5562 5566
5679 5674 5669 5664 5659 5653 5649 5643 5639 5636 5631 5627 5624 5621 5617 5612 5608 5603 5599 5594 5590 5586 5582 5578 5576 5573 5571 5568 5565 5562 5560 5557 5554 5557 5559 5556 5557 5557 5557 5559 5559 5560 5562 5564
5670 5666 5662 5656 5651 5647 5643 5638 5634 5629 5624 5620 5616 5612 5608 5602 5598 5593 5588 5584 5578 5574 5571 5566 5565 5563 5560 5557 5555 5553 5551 5550 5549 5548 5549 5549 5551 5550 5552 5553 5556 5559 5559 5559
5666 5661 5656 5650 5643 5638 5635 5631 5627 5620 5616 5612 5606 5602 5597 5590 5585 5582 5576 5573 5566 5562 5560 5555 5552 5550 5548 5546 5544 5541 5540 5538 5539 5539 5537 5537 5541 5544 5545 5547 5551 5553 5556 5557
5659 5654 5647 5642 5636 5631 5626 5621 5616 5610 5604 5600 5595 5589 5584 5577 5572 5569 5564 5560 5554 5549 5546 5540 5540 5535 5532 5531 5528 5526 5525 5524 5525 5527 5527 5527 5527 5533 5538 5542 5545 5548 5552 5556
5651 5646 5640 5635 5628 5621 5616 5611 5604 5597 5593 5588 5583 5578 5570 5564 5559 5558 5550 5546 5542 5537 5531 5526 5523 5518 5515 5511 5510 5509 5508 5510 5510 5514 5516 5516 5517 5522 5528 5534 5535 5540 5543 5550
5645 5639 5632 5626 5619 5612 5605 5599 5592 5586 5582 5577 5571 5565 5557 5553 5547 5543 5539 5533 5527 5523 5517 5512 5508 5503 5500 5499 5499 5495 5494 5496 5497 5499 5501 5504 5507 5511 5515 5522 5527 5529 5532 5538
5639 5631 5624 5616 5606 5598 5592 5585 5579 5572 5568 5564 5560 5552 5545 5540 5535 5530 5526 5520 5514 5508 5503 5497 5494 5494 5492 5492 5489 5486 5484 5485 5485 5485 5489 5494 5497 5501 5504 5507 5515 5518 5523 5527
5629 5621 5612 5603 5593 5582 5574 5568 5560 5554 5550 5551 5542 5535 5530 5525 5521 5518 5513 5508 5500 5495 5491 5486 5483 5481 5482 5480 5481 5479 5477 5477 5476 5477 5478 5481 5484 5490 5494 5496 5499 5504 5510 5515
5618 5608 5598 5586 5576 5567 5558 5551 5545 5538 5534 5533 5523 5518 5513 5509 5505 5502 5499 5494 5489 5484 5480 5476 5475 5474 5473 5472 5473 5474 5471 5470 5468 5468 5466 5470 5475 5478 5483 5487 5492 5492 5498 5503
5604 5592 5581 5570 5561 5554 5548 5539 5532 5524 5520 5517 5509 5504 5499 5495 5491 5488 5485 5480 5477 5472 5469 5466 5465 5463 5464 5464 5465 5464 5464 5463 5462 5461 5460 5463 5465 5470 5475 5478 5479 5481 5485 5489
5589 5578 5567 5556 5548 5541 5536 5530 5521 5513 5507 5503 5496 5490 5487 5482 5478 5476 5472 5467 5462 5459 5457 5455 5453 5453 5452 5453 5455 5456 5457 5457 5456 5456 5455 5455 5456 5460 5462 5465 5469 5473 5476 5479
5577 5565 5554 5544 5536 5529 5523 5517 5510 5503 5497 5494 5486 5479 5475 5470 5466 5463 5460 5456 5451 5448 5444 5444 5442 5441 5441 5442 5445 5446 5448 5447 5448 5448 5448 5449 5449 5451 5454 5456 5459 5464 5467 5469
5565 5553 5542 5533 5526 5519 5512 5505 5497 5489 5483 5480 5478 5471 5464 5459 5454 5449 5446 5444 5441 5437 5434 5432 5431 5431 5431 5432 5433 5434 5438 5439 5439 5440 5441 5442 5442 5445 5446 5448 5452 5454 5457 5460
5554 5542 5532 5523 5516 5509 5502 5495 5487 5480 5475 5470 5466 5460 5453 5446 5441 5437 5435 5432 5429 5427 5424 5423 5422 5422 5422 5423 5424 5426 5428 5430 5432 5432 5433 5434 5435 5437 5440 5442 5443 5445 5448 5451
5542 5530 5520 5512 5504 5498 5491 5486 5479 5469 5463 5458 5454 5450 5442 5436 5430 5426 5424 5422 5419 5416 5415 5414 5414 5415 5416 5416 5418 5420 5421 5423 5424 5425 5425 5426 5429 5431 5433 5434 5436 5438 5440 5442
5532 5520 5510 5501 5494 5486 5479 5472 5465 5458 5451 5444 5439 5435 5429 5424 5420 5417 5414 5412 5410 5407 5407 5407 5407 5408 5408 5408 5409 5413 5414 5416 5418 5419 5420 5421 5422 5424 5426 5427 5429 5430 5432 5434
5520 5509 5500 5491 5484 5475 5468 5459 5452 5445 5438 5433 5427 5423 5419 5414 5411 5408 5405 5403 5401 5399 5398 5400 5400 5400 5399 5399 5403 5405 5407 5409 5411 5412 5414 5416 5417 5418 5419 5421 5422 5423 5425 5426
5510 5499 5491 5482 5472 5464 5456 5448 5441 5434 5429 5421 5417 5412 5410 5406 5403 5400 5398 5396 5394 5393 5392 5392 5393 5393 5393 5393 5393 5395 5398 5400 5402 5405 5407 5409 5411 5412 5413 5414 5415 5416 5417 5418
5499 5489 5480 5470 5462 5453 5445 5437 5431 5425 5419 5414 5409 5406 5403 5400 5396 5394 5393 5390 5388 5387 5387 5385 5386 5387 5388 5388 5388 5388 5390 5392 5394 5397 5399 5401 5403 5404 5406 5407 5408 5409 5410 5411
5486 5478 5470 5458 5448 5440 5432 5427 5422 5416 5413 5409 5405 5401 5398 5395 5393 5390 5387 5385 5383 5382 5382 5381 5380 5381 5382 5383 5382 5382 5383 5384 5386 5388 5390 5392 5393 5395 5397 5398 5399 5400 5401 5403
5473 5464 5454 5444 5436 5429 5423 5417 5414 5410 5406 5404 5400 5397 5394 5391 5388 5385 5384 5382 5380 5379 5378 5376 5376 5376 5375 5375 5375 5376 5376 5378 5379 5380 5381 5382 5384 5385 5386 5387 5388 5390 5392 5393
5462 5451 5441 5433 5425 5420 5414 5411 5408 5405 5402 5399 5396 5393 5390 5387 5384 5382 5380 5378 5377 5375 5374 5372 5372 5371 5370 5370 5370 5369 5369 5370 5371 5371 5372 5373 5374 5374 5375 5376 5378 5380 5381 5382
5449 5439 5429 5422 5415 5412 5409 5406 5403 5400 5397 5395 5392 5389 5386 5382 5381 5378 5377 5375 5374 5372 5370 5369 5367 5367 5366 5365 5364 5363 5362 5362 5362 5362 5362 5363 5363 5363 5364 5366 5367 5369 5370 5371
5437 5427 5419 5413 5408 5405 5402 5399 5397 5394 5392 5390 5387 5385 5382 5379 5377 5375 5374 5372 5370 5368 5366 5365 5363 5362 5360 5359 5358 5357 5356 5355 5354 5354 5354 5354 5353 5353 5354 5354 5356 5357 5358 5359
5428 5417 5410 5405 5401 5397 5394 5392 5389 5387 5386 5384 5382 5379 5376 5375 5373 5371 5369 5368 5366 5364 5361 5359 5357 5355 5354 5352 5350 5349 5348 5347 5346 5345 5345 5345 5345 5345 5345 5345 5345 5345 5346 5346
5418 5411 5404 5399 5394 5390 5387 5384 5382 5380 5379 5377 5375 5373 5371 5369 5367 5366 5364 5362 5361 5358 5355 5353 5351 5349 5347 5344 5342 5340 5339 5337 5336 5335 5335 5334 5334 5333 5334 5334 5334 5335 5335 5336
Wind_Speed
40 34 30 32 37 37 30 26 21 19 21 24 26 28 28 33 36 38 38 39 39 39 40 38 38 36 32 36 30 29 30 31 28 26 26 22 20 21 18 14 11 10 12 11
38 36 34 36 35 32 27 26 28 26 27 29 31 32 36 38 39 41 42 43 43 43 43 43 41 40 38 38 39 36 34 32 30 28 28 27 22 24 25 21 17 14 15 17
35 35 35 36 34 29 31 31 31 32 33 34 34 38 39 41 43 43 44 45 45 46 45 45 44 43 44 46 45 43 41 39 33 34 36 35 28 26 27 28 21 19 20 21
36 37 37 38 35 33 33 35 37 38 39 38 39 40 42 45 45 45 46 46 47 47 46 46 46 46 48 50 51 50 48 45 41 36 34 42 36 31 30 32 26 27 20 18
40 40 39 38 38 39 39 41 43 43 45 44 45 48 46 47 48 49 47 47 47 47 47 49 49 54 55 55 54 52 51 53 46 43 39 35 45 39 33 32 33 29 24 14
38 38 38 40 42 44 46 46 47 48 50 49 49 49 48 50 49 46 47 49 48 48 49 52 54 56 55 54 50 47 48 48 47 47 42 41 39 46 38 33 36 34 35 24
40 41 42 43 45 48 49 50 51 52 51 51 53 51 55 50 49 48 48 48 49 47 50 52 50 49 44 36 31 36 40 38 41 43 42 43 40 34 45 41 37 38 42 36
46 47 48 49 51 52 54 54 55 56 55 56 55 55 55 53 48 48 46 46 47 46 47 46 43 37 31 31 32 30 32 32 36 40 42 42 40 35 32 42 47 44 43 43
52 54 55 55 57 57 55 54 55 55 56 52 52 50 54 51 45 45 44 44 44 44 40 40 40 37 35 26 25 24 23 27 31 36 40 41 41 38 35 34 36 52 49 48
55 58 55 56 59 59 56 54 54 56 57 53 52 50 45 42 45 44 43 44 44 42 40 40 39 36 34 29 25 20 15 24 25 27 30 39 37 36 36 34 33 30 59 55
66 61 55 58 58 55 54 54 56 55 54 46 43 43 42 44 43 44 43 44 42 39 36 36 35 34 33 32 30 30 26 26 28 25 30 33 33 33 32 31 31 30 33 52
66 58 55 58 55 51 47 46 49 51 50 47 45 43 43 44 42 42 42 42 41 40 38 38 37 35 38 35 34 30 30 30 28 27 24 25 29 28 30 34 33 31 30 34
63 57 55 56 52 48 48 48 49 49 46 42 41 43 39 41 45 44 43 41 37 37 36 34 34 36 35 34 33 36 27 29 25 24 21 24 25 29 32 33 33 33 34 32
62 57 53 49 46 47 47 46 47 48 47 36 35 40 41 42 43 42 42 37 34 35 33 32 33 33 31 29 29 30 31 28 26 27 23 20 26 28 29 30 29 29 30 31
61 57 52 47 46 46 47 47 49 47 44 43 44 42 42 43 41 40 39 34 32 31 29 27 25 23 23 23 24 25 31 29 27 24 27 27 24 25 27 28 29 29 28 28
59 56 51 48 48 48 51 51 48 49 49 49 45 44 42 40 37 36 33 30 29 28 25 24 22 20 21 23 25 25 26 28 25 22 23 26 27 24 22 22 26 27 27 28
59 56 52 49 48 48 50 50 49 48 50 50 50 44 39 36 33 30 29 27 26 25 24 22 23 21 27 28 27 25 28 29 27 23 18 19 21 22 23 24 24 24 27 27
59 53 45 44 49 51 51 50 49 48 48 48 44 38 33 30 27 25 24 23 24 22 22 20 20 21 24 31 32 30 23 28 33 27 24 20 21 22 23 24 26 29 28 27
60 52 48 50 53 52 50 48 46 45 43 41 36 32 27 25 23 23 22 21 21 20 20 21 22 21 20 18 20 30 33 28 26 29 30 28 24 22 21 21 22 25 28 31
60 51 52 53 54 52 50 45 43 39 34 28 27 23 21 22 23 21 20 19 19 18 17 20 22 24 21 18 18 21 26 29 28 29 30 29 30 30 30 28 27 28 27 27
58 54 55 55 54 51 46 41 36 33 28 26 23 20 19 20 20 20 19 17 16 14 14 16 18 19 22 23 24 22 23 22 24 29 33 35 35 35 34 34 33 32 32 29
56 57 59 55 49 45 39 33 30 28 25 22 20 20 22 23 21 18 16 14 14 13 12 13 13 14 16 22 25 28 29 29 29 29 29 30 31 36 38 38 37 36 35 34
60 61 58 53 45 37 33 29 24 20 21 24 23 22 20 22 17 14 14 14 14 13 12 13 12 13 16 21 25 26 28 29 30 31 33 34 36 37 38 37 38 38 40 39
63 62 53 44 38 32 26 19 25 23 21 23 21 21 23 19 14 13 13 13 13 12 11 12 15 16 17 18 19 20 21 22 23 24 29 33 34 36 37 38 39 40 40 40
60 53 45 39 34 27 24 24 26 23 26 25 22 22 23 17 14 13 14 14 13 14 15 16 17 18 19 20 22 22 23 24 24 24 23 24 25 27 29 33 39 42 43 42
51 44 38 34 30 28 26 23 24 28 28 27 22 21 22 17 16 15 15 17 18 18 19 20 20 20 21 22 24 26 27 28 28 28 28 28 28 27 27 28 28 28 30 33
42 37 32 30 29 26 25 25 25 26 26 22 21 22 19 18 18 17 18 21 22 22 23 25 25 24 23 23 23 25 26 28 29 29 29 28 28 29 30 30 30 30 30 33
Wind_Direction
318 311 310 311 314 313 306 297 297 292 289 288 293 298 300 302 302 303 304 301 301 301 300 300 300 301 299 300 300 296 294 283 268 263 277 271 267 266 270 265 243 217 202 226
316 311 313 314 314 308 293 293 295 295 292 293 296 299 302 302 302 302 301 300 300 299 300 299 298 296 296 293 294 292 291 287 284 264 262 269 257 255 254 258 240 210 210 221
316 315 315 314 310 296 289 290 290 290 289 291 294 298 302 301 300 299 297 296 297 297 298 298 297 295 294 292 290 286 284 281 279 278 263 255 257 257 251 248 247 226 213 224
324 318 314 311 303 291 288 290 290 290 290 292 296 300 304 302 299 297 297 297 299 299 298 297 296 296 293 290 285 282 279 274 270 270 275 250 247 246 248 243 240 230 218 226
326 323 317 309 299 293 289 290 291 288 288 290 292 301 304 302 300 301 300 300 301 302 302 300 302 301 297 291 284 278 273 272 267 264 265 263 243 243 243 241 240 232 221 218
328 323 315 307 300 296 294 292 288 286 289 292 297 301 303 303 302 303 304 304 303 304 303 304 305 301 295 289 284 276 270 266 265 262 260 260 256 243 242 237 237 237 225 232
325 320 315 309 302 297 294 292 287 286 290 292 297 297 300 303 304 304 305 304 305 304 305 303 299 298 297 286 283 277 271 266 262 259 256 255 260 254 244 239 240 239 234 239
326 319 314 308 302 297 295 294 292 290 290 292 294 293 296 298 299 302 303 302 304 303 301 297 296 298 301 284 281 278 270 261 257 257 250 250 255 256 255 241 236 239 238 241
325 320 315 310 303 297 294 293 291 291 292 294 295 293 295 296 297 297 300 301 298 297 293 289 292 296 298 293 277 278 266 254 258 254 254 250 249 250 251 251 239 234 236 241
329 327 320 306 301 301 302 301 301 298 297 296 296 296 298 297 295 297 298 298 298 293 289 285 287 286 289 283 279 271 285 278 274 265 257 247 246 247 245 246 250 241 233 236
337 331 317 308 308 308 309 309 309 308 309 309 304 301 297 293 295 298 300 299 296 290 285 284 289 285 279 275 271 271 276 289 286 279 269 257 249 245 248 246 251 253 241 236
336 326 316 311 314 316 313 312 310 309 307 303 300 297 299 302 298 297 298 297 293 291 285 283 281 280 276 268 259 262 275 274 275 274 268 261 259 255 251 248 245 248 249 242
333 322 315 313 317 317 316 315 310 306 303 303 302 301 301 300 299 299 298 295 291 293 285 281 278 278 278 275 265 262 262 254 255 271 264 255 253 248 246 244 242 241 243 245
330 323 318 320 320 319 322 325 319 313 312 309 304 304 302 299 296 295 295 295 291 289 284 279 278 279 274 270 266 256 245 250 260 264 263 262 252 250 248 248 248 248 245 246
328 323 323 319 317 319 317 319 317 315 316 313 310 306 304 299 299 295 293 292 290 288 285 282 279 272 266 270 264 261 245 249 257 264 265 262 265 253 251 252 255 254 252 249
325 322 320 317 312 313 313 317 315 313 311 310 308 306 301 299 295 292 291 289 287 286 284 279 271 268 248 256 261 259 247 247 254 255 258 259 256 255 252 254 254 252 252 253
324 321 317 315 314 313 312 312 313 312 309 308 306 307 304 300 296 291 287 285 284 283 281 274 267 259 242 243 248 249 243 246 245 244 248 260 259 258 260 259 254 254 252 251
321 320 322 319 315 315 314 312 311 310 307 306 308 308 305 300 293 288 284 281 281 280 277 268 263 257 254 253 252 247 246 249 243 244 245 253 256 256 260 263 261 255 250 247
320 320 319 318 315 315 314 312 311 309 309 310 311 310 309 303 297 293 290 287 282 279 275 269 257 259 267 275 260 240 243 255 251 246 242 246 249 252 259 264 269 271 267 260
321 320 321 320 317 315 314 312 311 312 312 313 314 316 308 305 303 300 299 295 291 283 275 268 264 258 259 268 265 251 243 247 252 252 244 244 248 253 255 262 266 267 268 268
323 322 320 320 319 317 315 314 314 314 314 318 315 319 318 316 315 311 306 304 300 292 273 267 263 260 256 254 248 245 243 238 241 248 248 249 250 250 251 258 261 262 263 262
323 321 322 321 319 317 316 317 315 313 322 329 325 318 317 319 318 312 309 304 301 295 285 275 266 255 244 242 246 250 255 256 258 259 256 254 251 251 251 253 256 256 257 259
322 321 322 320 321 318 317 315 312 310 309 314 319 318 318 320 314 314 314 310 308 302 289 283 278 269 262 258 255 256 259 258 254 252 253 253 253 253 253 255 255 256 255 256
321 322 321 320 318 315 316 325 305 309 313 317 316 316 323 314 304 307 310 315 313 311 305 290 284 277 272 268 265 265 266 267 268 269 269 266 264 260 255 253 253 254 255 256
323 322 322 321 317 310 299 282 284 287 297 313 310 311 319 304 298 298 306 314 316 318 315 309 302 295 288 281 275 273 272 272 272 271 267 266 266 265 265 265 263 260 259 258
324 323 323 319 313 304 299 288 275 282 290 300 300 302 307 292 287 289 293 302 307 306 310 315 309 298 292 287 283 281 279 278 276 274 271 268 266 262 260 262 261 260 257 256
324 328 327 324 318 307 294 286 276 278 284 287 287 294 288 284 281 287 291 294 300 304 304 305 309 308 303 297 291 285 283 281 279 279 278 276 275 272 269 266 264 262 258 255